Location: Lafig�re
(44.4503°N, 4.0357°E)
Time: 02:11:11
(UTC+00:00)

Transit 4A - Pass Details

Date: 25 January 2021
Orbit: 866 x 978 km, 66.8° (Epoch: 02 March)

Event Time Altitude Azimuth Distance (km) Brightness Sun altitude
Rises 02:39:19 0° 330° (NNW) 3,635 - -47.6°
Reaches altitude 10° 02:42:00 10° 336° (NNW) 2,671 - -47.2°
Maximum altitude 02:48:00 48° 51° (NE) 1,188 - -46.2°
Drops below altitude 10° 02:53:48 10° 125° (SE) 2,581 - -45.2°
Exits shadow 02:55:18 - 129° (SE) 3,117 10.9 -44.9°
Sets 02:56:21 0° 131° (SE) 3,502 11.2 -44.8°
